TimeEDT,TemperatureF,Dew PointF,Humidity,Sea Level PressureIn,VisibilityMPH,Wind Direction,Wind SpeedMPH,Gust SpeedMPH,PrecipitationIn,Events,Conditions,WindDirDegrees,DateUTC
12:53 AM,30.9,24.1,76,30.24,10.0,Calm,Calm,-,N/A,,Clear,0,2013-03-28 04:53:00
1:53 AM,30.0,21.9,72,30.24,10.0,Calm,Calm,-,N/A,,Clear,0,2013-03-28 05:53:00
2:53 AM,28.0,21.9,78,30.25,10.0,SW,3.5,-,N/A,,Clear,220,2013-03-28 06:53:00
3:53 AM,28.9,21.0,72,30.25,10.0,Calm,Calm,-,N/A,,Clear,0,2013-03-28 07:53:00
4:53 AM,30.0,21.0,69,30.25,10.0,SSW,4.6,-,N/A,,Clear,210,2013-03-28 08:53:00
5:53 AM,26.1,21.0,81,30.25,10.0,Calm,Calm,-,N/A,,Clear,0,2013-03-28 09:53:00
6:53 AM,24.1,19.9,84,30.26,10.0,Calm,Calm,-,N/A,,Partly Cloudy,0,2013-03-28 10:53:00
7:53 AM,23.0,19.9,88,30.27,10.0,Calm,Calm,-,N/A,,Partly Cloudy,0,2013-03-28 11:53:00
8:53 AM,30.0,23.0,75,30.27,10.0,SSW,3.5,-,N/A,,Partly Cloudy,200,2013-03-28 12:53:00
9:53 AM,37.0,24.1,59,30.28,10.0,NNW,5.8,-,N/A,,Partly Cloudy,330,2013-03-28 13:53:00
10:53 AM,39.0,23.0,53,30.28,10.0,WNW,4.6,-,N/A,,Partly Cloudy,290,2013-03-28 14:53:00
11:53 AM,39.9,24.1,53,30.29,10.0,Calm,Calm,-,N/A,,Partly Cloudy,0,2013-03-28 15:53:00
12:53 PM,42.1,25.0,51,30.28,10.0,Calm,Calm,-,N/A,,Clear,0,2013-03-28 16:53:00
1:53 PM,45.0,23.0,42,30.27,10.0,NW,9.2,-,N/A,,Clear,310,2013-03-28 17:53:00
2:53 PM,45.0,21.0,39,30.27,10.0,Variable,5.8,-,N/A,,Clear,0,2013-03-28 18:53:00
3:53 PM,46.0,21.9,39,30.26,10.0,WNW,10.4,-,N/A,,Clear,290,2013-03-28 19:53:00
4:53 PM,45.0,21.9,40,30.26,10.0,West,9.2,-,N/A,,Clear,280,2013-03-28 20:53:00
5:53 PM,44.1,19.9,38,30.26,10.0,West,8.1,-,N/A,,Partly Cloudy,280,2013-03-28 21:53:00
6:53 PM,43.0,19.9,40,30.26,10.0,WNW,8.1,-,N/A,,Scattered Clouds,300,2013-03-28 22:53:00
7:53 PM,39.0,21.9,50,30.27,10.0,West,8.1,-,N/A,,Scattered Clouds,260,2013-03-28 23:53:00
8:53 PM,37.0,19.0,48,30.27,10.0,Calm,Calm,-,N/A,,Partly Cloudy,0,2013-03-29 00:53:00
9:53 PM,33.1,21.9,64,30.28,10.0,Calm,Calm,-,N/A,,Partly Cloudy,0,2013-03-29 01:53:00
10:53 PM,30.0,21.9,72,30.28,10.0,Calm,Calm,-,N/A,,Clear,0,2013-03-29 02:53:00
11:53 PM,30.0,19.9,66,30.29,10.0,Calm,Calm,-,N/A,,Clear,0,2013-03-29 03:53:00